Starlink 33925

operational
NORAD ID: 63793 Int'l Des: 2025-091 Owner: SPXS Country: US Constellation: starlink
LEOCIRCULAR

About Starlink 33925

Description loading...

Live Position

Loading 3D Globe...

Upcoming Passes

Altitude History

Altitude vs Time

uPlot chart will show altitude changes over time

Two-Line Element Set

1 63793U 25091U 25304.67632397 .00053007 00000-0 19196-2 0 9995
2 63793 42.9988 60.9193 0001640 272.5976 87.4688 15.27620390 29284
Epoch: Oct 31, 2025 • Age: 22 hours

Current Status

Altitude 494.9 km
Velocity 7.62 km/s
Sub-Earth Point -43.14°S, 75.74°E
Launch Date May 2, 2025
Age 0.5 years
Type internet

Technical Details

Classification Payload
Mass 575.00 kg
Dry Mass 530.00 kg
Total Mass 575.00 kg
Length 0.30 m
Diameter 4.10 m
Span 29.00 m
Shape Box + pan
Manufacturer SPXS
Bus Type Starlink V2MO
Phase Status In Orbit
Owner/State SPXS/US

Large Constellations

Loading constellations...